Delta Virtual Airport Information Service

Kingston Norman Manley International Airport

ICAO: MKJP Country: Jamaica
Latitude: 17.9357 Longitude: -76.7875
Latest Arrival : AAL1082 (KMIA-MKJP) Latest Departure : AAL1548 (3) (MKJP-KMIA)


WX CaptureLIVE
Data provided by noaa.gov | Fetched at 18:09:27

METAR : MKJP 172100Z 07016KT 9999 SCT018 SCT020CB 29/23 Q1013 RETS

TAF : MKJP 172100Z 07016KT 9999 SCT018 SCT020CB 29/23 Q1013 RETS


Runway Data for MKJP
Data provided by openaviationdata.com

Runway ID Mag Var Hdg Length Elevation Surface ILS Freq ILS Id ILS Slope
12 -6 118° 8910 ft 10 ft Asphalt 109.1 IMLY 3
30 -6 298° 8910 ft 10 ft Asphalt -- -- --

Kingston Norman Manley International Airport, Jamaica
Use only for reference purposes



Not for navigational purposes.